Year,Month,Day,Hour,Minute,Value (Times are PST for temperature in C)
2016,04,17,00,00,8.40
2016,04,17,00,01,8.40
2016,04,17,00,02,8.40
2016,04,17,00,03,8.40
2016,04,17,00,04,8.40
2016,04,17,00,05,8.40
2016,04,17,00,06,8.40
2016,04,17,00,07,8.40
2016,04,17,00,08,8.40
2016,04,17,00,09,8.40
2016,04,17,00,10,8.40
2016,04,17,00,11,8.40
2016,04,17,00,12,8.40
2016,04,17,00,13,8.40
2016,04,17,00,14,8.40
2016,04,17,00,15,8.30
2016,04,17,00,16,8.30
2016,04,17,00,17,8.30
2016,04,17,00,18,8.30
2016,04,17,00,19,8.30
2016,04,17,00,20,8.30
2016,04,17,00,21,8.30
2016,04,17,00,22,8.30
2016,04,17,00,23,8.30
2016,04,17,00,24,8.30
2016,04,17,00,25,8.30
2016,04,17,00,26,8.30
2016,04,17,00,27,8.30
2016,04,17,00,28,8.30
2016,04,17,00,29,8.30
2016,04,17,00,30,8.30
2016,04,17,00,31,8.30
2016,04,17,00,32,8.30
2016,04,17,00,33,8.30
2016,04,17,00,34,8.30
2016,04,17,00,35,8.30
2016,04,17,00,36,8.30
2016,04,17,00,37,8.30
2016,04,17,00,38,8.30
2016,04,17,00,39,8.30
2016,04,17,00,40,8.30
2016,04,17,00,41,8.30
2016,04,17,00,42,8.30
2016,04,17,00,43,8.30
2016,04,17,00,44,8.30
2016,04,17,00,45,8.30
2016,04,17,00,46,8.30
2016,04,17,00,47,8.30
2016,04,17,00,48,8.30
2016,04,17,00,49,8.30
2016,04,17,00,50,8.30
2016,04,17,00,51,8.30
2016,04,17,00,52,8.30
2016,04,17,00,53,8.30
2016,04,17,00,54,8.30
2016,04,17,00,55,8.20
2016,04,17,00,56,8.20
2016,04,17,00,57,8.20
2016,04,17,00,58,8.20
2016,04,17,00,59,8.10
2016,04,17,01,00,8.10
2016,04,17,01,01,8.10
2016,04,17,01,02,8.10
2016,04,17,01,03,8.20
2016,04,17,01,04,8.20
2016,04,17,01,05,8.20
2016,04,17,01,06,8.20
2016,04,17,01,07,8.20
2016,04,17,01,08,8.20
2016,04,17,01,09,8.20
2016,04,17,01,10,8.20
2016,04,17,01,11,8.20
2016,04,17,01,12,8.20
2016,04,17,01,13,8.20
2016,04,17,01,14,8.10
2016,04,17,01,15,8.10
2016,04,17,01,16,8.10
2016,04,17,01,17,8.10
2016,04,17,01,18,8.00
2016,04,17,01,19,8.00
2016,04,17,01,20,8.00
2016,04,17,01,21,7.90
2016,04,17,01,22,7.90
2016,04,17,01,23,7.90
2016,04,17,01,24,7.90
2016,04,17,01,25,7.80
2016,04,17,01,26,7.80
2016,04,17,01,27,7.80
2016,04,17,01,28,7.80
2016,04,17,01,29,7.80
2016,04,17,01,30,7.80
2016,04,17,01,31,7.80
2016,04,17,01,32,7.80
2016,04,17,01,33,7.80
2016,04,17,01,34,7.80
2016,04,17,01,35,7.80
2016,04,17,01,36,7.80
2016,04,17,01,37,7.80
2016,04,17,01,38,7.80
2016,04,17,01,39,7.80
2016,04,17,01,40,7.70
2016,04,17,01,41,7.70
2016,04,17,01,42,7.70
2016,04,17,01,43,7.70
2016,04,17,01,44,7.70
2016,04,17,01,45,7.70
2016,04,17,01,46,7.60
2016,04,17,01,47,7.60
2016,04,17,01,48,7.60
2016,04,17,01,49,7.50
2016,04,17,01,50,7.50
2016,04,17,01,51,7.50
2016,04,17,01,52,7.50
2016,04,17,01,53,7.50
2016,04,17,01,54,7.50
2016,04,17,01,55,7.50
2016,04,17,01,56,7.50
2016,04,17,01,57,7.60
2016,04,17,01,58,7.60
2016,04,17,01,59,7.60
2016,04,17,02,00,7.60
2016,04,17,02,01,7.60
2016,04,17,02,02,7.60
2016,04,17,02,03,7.60
2016,04,17,02,04,7.60
2016,04,17,02,05,7.60
2016,04,17,02,06,7.60
2016,04,17,02,07,7.60
2016,04,17,02,08,7.60
2016,04,17,02,09,7.60
2016,04,17,02,10,7.60
2016,04,17,02,11,7.60
2016,04,17,02,12,7.60
2016,04,17,02,13,7.60
2016,04,17,02,14,7.60
2016,04,17,02,15,7.60
2016,04,17,02,16,7.60
2016,04,17,02,17,7.60
2016,04,17,02,18,7.60
2016,04,17,02,19,7.60
2016,04,17,02,20,7.60
2016,04,17,02,21,7.70
2016,04,17,02,22,7.70
2016,04,17,02,23,7.70
2016,04,17,02,24,7.70
2016,04,17,02,25,7.70
2016,04,17,02,26,7.80
2016,04,17,02,27,7.80
2016,04,17,02,28,7.80
2016,04,17,02,29,7.90
2016,04,17,02,30,7.90
2016,04,17,02,31,7.90
2016,04,17,02,32,7.90
2016,04,17,02,33,7.90
2016,04,17,02,34,7.90
2016,04,17,02,35,7.90
2016,04,17,02,36,7.90
2016,04,17,02,37,7.80
2016,04,17,02,38,7.80
2016,04,17,02,39,7.80
2016,04,17,02,40,7.80
2016,04,17,02,41,7.70
2016,04,17,02,42,7.70
2016,04,17,02,43,7.70
2016,04,17,02,44,7.70
2016,04,17,02,45,7.70
2016,04,17,02,46,7.60
2016,04,17,02,47,7.60
2016,04,17,02,48,7.60
2016,04,17,02,49,7.60
2016,04,17,02,50,7.50
2016,04,17,02,51,7.50
2016,04,17,02,52,7.40
2016,04,17,02,53,7.40
2016,04,17,02,54,7.40
2016,04,17,02,55,7.40
2016,04,17,02,56,7.30
2016,04,17,02,57,7.30
2016,04,17,02,58,7.30
2016,04,17,02,59,7.30
2016,04,17,03,00,7.30
2016,04,17,03,01,7.30
2016,04,17,03,02,7.30
2016,04,17,03,06,7.20
2016,04,17,03,07,7.20
2016,04,17,03,08,7.20
2016,04,17,03,09,7.20
2016,04,17,03,10,7.20
2016,04,17,03,11,7.20
2016,04,17,03,12,7.20
2016,04,17,03,13,7.20
2016,04,17,03,14,7.20
2016,04,17,03,15,7.20
2016,04,17,03,16,7.20
2016,04,17,03,17,7.30
2016,04,17,03,18,7.30
2016,04,17,03,19,7.30
2016,04,17,03,20,7.30
2016,04,17,03,21,7.30
2016,04,17,03,22,7.30
2016,04,17,03,23,7.30
2016,04,17,03,24,7.30
2016,04,17,03,25,7.30
2016,04,17,03,26,7.30
2016,04,17,03,27,7.30
2016,04,17,03,28,7.30
2016,04,17,03,29,7.20
2016,04,17,03,30,7.20
2016,04,17,03,31,7.20
2016,04,17,03,32,7.20
2016,04,17,03,33,7.20
2016,04,17,03,34,7.20
2016,04,17,03,35,7.20
2016,04,17,03,36,7.20
2016,04,17,03,37,7.30
2016,04,17,03,38,7.30
2016,04,17,03,39,7.30
2016,04,17,03,40,7.30
2016,04,17,03,41,7.30
2016,04,17,03,42,7.30
2016,04,17,03,43,7.30
2016,04,17,03,44,7.40
2016,04,17,03,45,7.40
2016,04,17,03,46,7.50
2016,04,17,03,47,7.50
2016,04,17,03,48,7.60
2016,04,17,03,49,7.60
2016,04,17,03,50,7.70
2016,04,17,03,51,7.70
2016,04,17,03,52,7.70
2016,04,17,03,53,7.80
2016,04,17,03,54,7.80
2016,04,17,03,55,7.80
2016,04,17,03,56,7.70
2016,04,17,03,57,7.70
2016,04,17,03,58,7.70
2016,04,17,03,59,7.70
2016,04,17,04,00,7.70
2016,04,17,04,01,7.70
2016,04,17,04,02,7.70
2016,04,17,04,03,7.70
2016,04,17,04,04,7.70
2016,04,17,04,05,7.70
2016,04,17,04,06,7.70
2016,04,17,04,07,7.70
2016,04,17,04,08,7.70
2016,04,17,04,09,7.70
2016,04,17,04,10,7.60
2016,04,17,04,11,7.60
2016,04,17,04,12,7.60
2016,04,17,04,13,7.60
2016,04,17,04,14,7.50
2016,04,17,04,15,7.50
2016,04,17,04,16,7.50
2016,04,17,04,17,7.40
2016,04,17,04,18,7.40
2016,04,17,04,19,7.40
2016,04,17,04,20,7.40
2016,04,17,04,21,7.30
2016,04,17,04,22,7.30
2016,04,17,04,23,7.30
2016,04,17,04,24,7.30
2016,04,17,04,25,7.30
2016,04,17,04,26,7.20
2016,04,17,04,27,7.20
2016,04,17,04,28,7.20
2016,04,17,04,29,7.20
2016,04,17,04,30,7.20
2016,04,17,04,31,7.20
2016,04,17,04,32,7.20
2016,04,17,04,33,7.20
2016,04,17,04,34,7.20
2016,04,17,04,35,7.20
2016,04,17,04,36,7.20
2016,04,17,04,37,7.20
2016,04,17,04,38,7.20
2016,04,17,04,39,7.10
2016,04,17,04,40,7.10
2016,04,17,04,41,7.10
2016,04,17,04,42,7.10
2016,04,17,04,43,7.10
2016,04,17,04,44,7.10
2016,04,17,04,45,7.10
2016,04,17,04,46,7.10
2016,04,17,04,47,7.10
2016,04,17,04,48,7.10
2016,04,17,04,49,7.10
2016,04,17,04,50,7.20
2016,04,17,04,51,7.20
2016,04,17,04,52,7.20
2016,04,17,04,53,7.20
2016,04,17,04,54,7.10
2016,04,17,04,55,7.10
2016,04,17,04,56,7.10
2016,04,17,04,57,7.10
2016,04,17,04,58,7.10
2016,04,17,04,59,7.10
2016,04,17,05,00,7.10
2016,04,17,05,01,7.20
2016,04,17,05,02,7.20
2016,04,17,05,03,7.20
2016,04,17,05,04,7.20
2016,04,17,05,05,7.20
2016,04,17,05,06,7.20
2016,04,17,05,07,7.20
2016,04,17,05,08,7.20
2016,04,17,05,09,7.20
2016,04,17,05,10,7.20
2016,04,17,05,11,7.20
2016,04,17,05,12,7.30
2016,04,17,05,13,7.30
2016,04,17,05,14,7.30
2016,04,17,05,15,7.30
2016,04,17,05,16,7.30
2016,04,17,05,17,7.40
2016,04,17,05,18,7.40
2016,04,17,05,19,7.40
2016,04,17,05,20,7.40
2016,04,17,05,21,7.40
2016,04,17,05,22,7.50
2016,04,17,05,23,7.50
2016,04,17,05,24,7.50
2016,04,17,05,25,7.50
2016,04,17,05,26,7.50
2016,04,17,05,27,7.60
2016,04,17,05,28,7.60
2016,04,17,05,29,7.60
2016,04,17,05,30,7.60
2016,04,17,05,31,7.60
2016,04,17,05,32,7.70
2016,04,17,05,33,7.70
2016,04,17,05,34,7.70
2016,04,17,05,35,7.70
2016,04,17,05,36,7.70
2016,04,17,05,37,7.70
2016,04,17,05,38,7.70
2016,04,17,05,39,7.70
2016,04,17,05,40,7.70
2016,04,17,05,41,7.70
2016,04,17,05,42,7.70
2016,04,17,05,43,7.70
2016,04,17,05,44,7.70
2016,04,17,05,45,7.70
2016,04,17,05,46,7.70
2016,04,17,05,47,7.70
2016,04,17,05,48,7.70
2016,04,17,05,49,7.70
2016,04,17,05,50,7.70
2016,04,17,05,51,7.80
2016,04,17,05,52,7.80
2016,04,17,05,53,7.80
2016,04,17,05,54,7.80
2016,04,17,05,55,7.80
2016,04,17,05,56,7.80
2016,04,17,05,57,7.80
2016,04,17,05,58,7.90
2016,04,17,05,59,7.90
2016,04,17,06,00,7.90
2016,04,17,06,01,7.90
2016,04,17,06,02,7.90
2016,04,17,06,03,7.90
2016,04,17,06,04,7.90
2016,04,17,06,05,7.80
2016,04,17,06,06,7.80
2016,04,17,06,07,7.80
2016,04,17,06,08,7.80
2016,04,17,06,09,7.80
2016,04,17,06,10,7.80
2016,04,17,06,11,7.80
2016,04,17,06,12,7.80
2016,04,17,06,13,7.80
2016,04,17,06,14,7.80
2016,04,17,06,15,7.80
2016,04,17,06,16,7.80
2016,04,17,06,17,7.80
2016,04,17,06,18,7.80
2016,04,17,06,19,7.80
2016,04,17,06,20,7.80
2016,04,17,06,21,7.80
2016,04,17,06,22,7.80
2016,04,17,06,23,7.70
2016,04,17,06,24,7.70
2016,04,17,06,25,7.70
2016,04,17,06,26,7.70
2016,04,17,06,27,7.60
2016,04,17,06,28,7.60
2016,04,17,06,29,7.60
2016,04,17,06,30,7.50
2016,04,17,06,31,7.50
2016,04,17,06,32,7.50
2016,04,17,06,33,7.50
2016,04,17,06,34,7.50
2016,04,17,06,35,7.50
2016,04,17,06,36,7.50
2016,04,17,06,37,7.40
2016,04,17,06,38,7.40
2016,04,17,06,39,7.40
2016,04,17,06,40,7.40
2016,04,17,06,41,7.30
2016,04,17,06,42,7.30
2016,04,17,06,43,7.30
2016,04,17,06,44,7.30
2016,04,17,06,45,7.30
2016,04,17,06,46,7.30
2016,04,17,06,47,7.30
2016,04,17,06,48,7.30
2016,04,17,06,49,7.30
2016,04,17,06,50,7.30
2016,04,17,06,51,7.20
2016,04,17,06,52,7.30
2016,04,17,06,53,7.30
2016,04,17,06,54,7.30
2016,04,17,06,55,7.30
2016,04,17,06,56,7.30
2016,04,17,06,57,7.30
2016,04,17,06,58,7.40
2016,04,17,06,59,7.40
2016,04,17,07,00,7.40
2016,04,17,07,01,7.50
2016,04,17,07,02,7.60
2016,04,17,07,03,7.60
2016,04,17,07,04,7.70
2016,04,17,07,05,7.70
2016,04,17,07,06,7.70
2016,04,17,07,07,7.80
2016,04,17,07,08,7.80
2016,04,17,07,09,7.90
2016,04,17,07,10,7.90
2016,04,17,07,11,7.90
2016,04,17,07,12,8.00
2016,04,17,07,13,8.00
2016,04,17,07,14,8.10
2016,04,17,07,15,8.10
2016,04,17,07,16,8.20
2016,04,17,07,17,8.20
2016,04,17,07,18,8.20
2016,04,17,07,19,8.30
2016,04,17,07,20,8.30
2016,04,17,07,21,8.30
2016,04,17,07,22,8.40
2016,04,17,07,23,8.40
2016,04,17,07,24,8.40
2016,04,17,07,25,8.40
2016,04,17,07,26,8.40
2016,04,17,07,27,8.50
2016,04,17,07,28,8.50
2016,04,17,07,29,8.50
2016,04,17,07,30,8.50
2016,04,17,07,31,8.50
2016,04,17,07,32,8.60
2016,04,17,07,33,8.60
2016,04,17,07,34,8.60
2016,04,17,07,35,8.60
2016,04,17,07,36,8.60
2016,04,17,07,37,8.60
2016,04,17,07,38,8.70
2016,04,17,07,39,8.70
2016,04,17,07,40,8.70
2016,04,17,07,41,8.70
2016,04,17,07,42,8.70
2016,04,17,07,43,8.70
2016,04,17,07,44,8.70
2016,04,17,07,45,8.80
2016,04,17,07,46,8.80
2016,04,17,07,47,8.80
2016,04,17,07,48,8.80
2016,04,17,07,49,8.80
2016,04,17,07,50,8.80
2016,04,17,07,51,8.80
2016,04,17,07,52,8.80
2016,04,17,07,53,8.80
2016,04,17,07,54,8.80
2016,04,17,07,55,8.90
2016,04,17,07,56,8.90
2016,04,17,07,57,8.90
2016,04,17,07,58,8.90
2016,04,17,07,59,9.00
2016,04,17,08,00,9.00
2016,04,17,08,01,9.10
2016,04,17,08,02,9.10
2016,04,17,08,03,9.20
2016,04,17,08,04,9.30
2016,04,17,08,05,9.30
2016,04,17,08,06,9.40
2016,04,17,08,07,9.50
2016,04,17,08,08,9.60
2016,04,17,08,09,9.60
2016,04,17,08,10,9.70
2016,04,17,08,11,9.70
2016,04,17,08,12,9.80
2016,04,17,08,13,9.80
2016,04,17,08,14,9.80
2016,04,17,08,15,9.80
2016,04,17,08,16,9.90
2016,04,17,08,17,9.90
2016,04,17,08,18,9.90
2016,04,17,08,19,10.00
2016,04,17,08,20,10.00
2016,04,17,08,21,10.10
2016,04,17,08,22,10.10
2016,04,17,08,23,10.20
2016,04,17,08,24,10.20
2016,04,17,08,25,10.20
2016,04,17,08,26,10.30
2016,04,17,08,27,10.30
2016,04,17,08,28,10.30
2016,04,17,08,29,10.40
2016,04,17,08,30,10.40
2016,04,17,08,31,10.40
2016,04,17,08,32,10.40
2016,04,17,08,33,10.50
2016,04,17,08,34,10.50
2016,04,17,08,35,10.50
2016,04,17,08,36,10.60
2016,04,17,08,37,10.60
2016,04,17,08,38,10.70
2016,04,17,08,39,10.70
2016,04,17,08,40,10.70
2016,04,17,08,41,10.70
2016,04,17,08,42,10.70
2016,04,17,08,43,10.70
2016,04,17,08,44,10.80
2016,04,17,08,45,10.80
2016,04,17,08,46,10.80
2016,04,17,08,47,10.80
2016,04,17,08,48,10.80
2016,04,17,08,49,10.80
2016,04,17,08,50,10.80
2016,04,17,08,51,10.80
2016,04,17,08,52,10.80
2016,04,17,08,53,10.80
2016,04,17,08,54,10.80
2016,04,17,08,55,10.90
2016,04,17,08,56,10.90
2016,04,17,08,57,10.90
2016,04,17,08,58,10.90
2016,04,17,08,59,11.00
2016,04,17,09,00,11.00
2016,04,17,09,01,11.00
2016,04,17,09,02,11.00
2016,04,17,09,03,11.00
2016,04,17,09,04,11.00
2016,04,17,09,05,11.10
2016,04,17,09,06,11.10
2016,04,17,09,07,11.20
2016,04,17,09,08,11.30
2016,04,17,09,09,11.40
2016,04,17,09,10,11.50
2016,04,17,09,11,11.60
2016,04,17,09,12,11.60
2016,04,17,09,13,11.70
2016,04,17,09,14,11.80
2016,04,17,09,15,11.90
2016,04,17,09,16,12.00
2016,04,17,09,17,12.00
2016,04,17,09,18,12.10
2016,04,17,09,19,12.10
2016,04,17,09,20,12.20
2016,04,17,09,21,12.30
2016,04,17,09,22,12.30
2016,04,17,09,23,12.40
2016,04,17,09,24,12.40
2016,04,17,09,25,12.50
2016,04,17,09,26,12.50
2016,04,17,09,27,12.60
2016,04,17,09,28,12.60
2016,04,17,09,29,12.60
2016,04,17,09,30,12.60
2016,04,17,09,31,12.70
2016,04,17,09,32,12.70
2016,04,17,09,33,12.70
2016,04,17,09,34,12.80
2016,04,17,09,35,12.80
2016,04,17,09,36,12.80
2016,04,17,09,37,12.80
2016,04,17,09,38,12.80
2016,04,17,09,39,12.80
2016,04,17,09,40,12.80
2016,04,17,09,41,12.80
2016,04,17,09,42,12.80
2016,04,17,09,43,12.80
2016,04,17,09,44,12.80
2016,04,17,09,45,12.80
2016,04,17,09,46,12.80
2016,04,17,09,47,12.90
2016,04,17,09,48,13.00
2016,04,17,09,49,13.10
2016,04,17,09,50,13.20
2016,04,17,09,51,13.30
2016,04,17,09,52,13.40
2016,04,17,09,53,13.50
2016,04,17,09,54,13.60
2016,04,17,09,55,13.70
2016,04,17,09,56,13.80
2016,04,17,09,57,13.80
2016,04,17,09,58,13.90
2016,04,17,09,59,14.00
2016,04,17,10,00,14.00
2016,04,17,10,01,14.20
2016,04,17,10,02,14.20
2016,04,17,10,03,14.30
2016,04,17,10,04,14.40
2016,04,17,10,05,14.50
2016,04,17,10,06,14.40
2016,04,17,10,07,14.40
2016,04,17,10,08,14.40
2016,04,17,10,09,14.30
2016,04,17,10,10,14.30
2016,04,17,10,11,14.30
2016,04,17,10,12,14.30
2016,04,17,10,13,14.30
2016,04,17,10,14,14.30
2016,04,17,10,15,14.30
2016,04,17,10,16,14.30
2016,04,17,10,17,14.30
2016,04,17,10,18,14.30
2016,04,17,10,19,14.30
2016,04,17,10,20,14.30
2016,04,17,10,21,14.30
2016,04,17,10,22,14.40
2016,04,17,10,23,14.50
2016,04,17,10,24,14.60
2016,04,17,10,25,14.70
2016,04,17,10,26,14.70
2016,04,17,10,27,14.80
2016,04,17,10,28,14.80
2016,04,17,10,29,14.80
2016,04,17,10,30,14.80
2016,04,17,10,31,14.90
2016,04,17,10,32,14.90
2016,04,17,10,33,14.80
2016,04,17,10,34,14.80
2016,04,17,10,35,14.80
2016,04,17,10,36,14.80
2016,04,17,10,37,14.80
2016,04,17,10,38,14.90
2016,04,17,10,39,15.00
2016,04,17,10,40,15.10
2016,04,17,10,41,15.20
2016,04,17,10,42,15.40
2016,04,17,10,43,15.50
2016,04,17,10,44,15.50
2016,04,17,10,45,15.50
2016,04,17,10,46,15.60
2016,04,17,10,47,15.60
2016,04,17,10,48,15.60
2016,04,17,10,49,15.60
2016,04,17,10,50,15.60
2016,04,17,10,51,15.50
2016,04,17,10,52,15.50
2016,04,17,10,53,15.40
2016,04,17,10,54,15.40
2016,04,17,10,55,15.50
2016,04,17,10,56,15.50
2016,04,17,10,57,15.60
2016,04,17,10,58,15.60
2016,04,17,10,59,15.60
2016,04,17,11,00,15.60
2016,04,17,11,01,15.70
2016,04,17,11,02,15.80
2016,04,17,11,03,15.90
2016,04,17,11,04,16.00
2016,04,17,11,05,16.10
2016,04,17,11,06,16.20
2016,04,17,11,07,16.20
2016,04,17,11,08,16.20
2016,04,17,11,09,16.30
2016,04,17,11,10,16.30
2016,04,17,11,11,16.30
2016,04,17,11,12,16.30
2016,04,17,11,13,16.30
2016,04,17,11,14,16.40
2016,04,17,11,15,16.40
2016,04,17,11,16,16.40
2016,04,17,11,17,16.40
2016,04,17,11,18,16.40
2016,04,17,11,19,16.40
2016,04,17,11,20,16.50
2016,04,17,11,21,16.50
2016,04,17,11,22,16.60
2016,04,17,11,23,16.70
2016,04,17,11,24,16.80
2016,04,17,11,25,17.00
2016,04,17,11,26,17.00
2016,04,17,11,27,17.10
2016,04,17,11,28,17.10
2016,04,17,11,29,17.10
2016,04,17,11,30,17.10
2016,04,17,11,31,17.10
2016,04,17,11,32,17.10
2016,04,17,11,33,17.10
2016,04,17,11,34,17.10
2016,04,17,11,35,17.10
2016,04,17,11,36,17.10
2016,04,17,11,37,17.00
2016,04,17,11,38,17.00
2016,04,17,11,39,17.00
2016,04,17,11,40,16.90
2016,04,17,11,41,16.90
2016,04,17,11,42,16.90
2016,04,17,11,43,17.00
2016,04,17,11,44,17.10
2016,04,17,11,45,17.10
2016,04,17,11,46,17.20
2016,04,17,11,47,17.30
2016,04,17,11,48,17.30
2016,04,17,11,49,17.40
2016,04,17,11,50,17.50
2016,04,17,11,51,17.50
2016,04,17,11,52,17.60
2016,04,17,11,53,17.50
2016,04,17,11,54,17.50
2016,04,17,11,55,17.40
2016,04,17,11,56,17.40
2016,04,17,11,57,17.30
2016,04,17,11,58,17.20
2016,04,17,11,59,17.10
2016,04,17,12,00,16.90
2016,04,17,12,01,16.80
2016,04,17,12,02,16.80
2016,04,17,12,03,16.80
2016,04,17,12,04,16.80
2016,04,17,12,05,16.80
2016,04,17,12,06,16.90
2016,04,17,12,07,17.00
2016,04,17,12,08,17.10
2016,04,17,12,09,17.20
2016,04,17,12,10,17.30
2016,04,17,12,11,17.40
2016,04,17,12,12,17.50
2016,04,17,12,13,17.50
2016,04,17,12,14,17.50
2016,04,17,12,15,17.50
2016,04,17,12,16,17.50
2016,04,17,12,17,17.50
2016,04,17,12,18,17.50
2016,04,17,12,19,17.50
2016,04,17,12,20,17.50
2016,04,17,12,21,17.50
2016,04,17,12,22,17.50
2016,04,17,12,23,17.40
2016,04,17,12,24,17.40
2016,04,17,12,25,17.50
2016,04,17,12,26,17.60
2016,04,17,12,27,17.70
2016,04,17,12,28,17.70
2016,04,17,12,29,17.80
2016,04,17,12,30,17.70
2016,04,17,12,31,17.60
2016,04,17,12,32,17.50
2016,04,17,12,33,17.40
2016,04,17,12,34,17.20
2016,04,17,12,35,17.20
2016,04,17,12,36,17.10
2016,04,17,12,37,17.10
2016,04,17,12,38,17.00
2016,04,17,12,39,17.00
2016,04,17,12,40,16.90
2016,04,17,12,41,16.90
2016,04,17,12,42,16.80
2016,04,17,12,43,16.80
2016,04,17,12,44,16.90
2016,04,17,12,45,17.00
2016,04,17,12,46,17.10
2016,04,17,12,47,17.20
2016,04,17,12,48,17.20
2016,04,17,12,49,17.10
2016,04,17,12,50,17.10
2016,04,17,12,51,17.10
2016,04,17,12,52,17.10
2016,04,17,12,53,17.20
2016,04,17,12,54,17.30
2016,04,17,12,55,17.40
2016,04,17,12,56,17.50
2016,04,17,12,57,17.50
2016,04,17,12,58,17.40
2016,04,17,12,59,17.40
2016,04,17,13,00,17.30
2016,04,17,13,01,17.10
2016,04,17,13,02,17.00
2016,04,17,13,03,16.90
2016,04,17,13,04,16.90
2016,04,17,13,05,16.90
2016,04,17,13,06,17.00
2016,04,17,13,07,17.00
2016,04,17,13,08,17.10
2016,04,17,13,09,17.10
2016,04,17,13,10,17.20
2016,04,17,13,11,17.30
2016,04,17,13,12,17.30
2016,04,17,13,13,17.30
2016,04,17,13,14,17.30
2016,04,17,13,15,17.20
2016,04,17,13,16,17.30
2016,04,17,13,17,17.30
2016,04,17,13,18,17.30
2016,04,17,13,19,17.30
2016,04,17,13,20,17.30
2016,04,17,13,21,17.30
2016,04,17,13,22,17.20
2016,04,17,13,23,17.30
2016,04,17,13,24,17.30
2016,04,17,13,25,17.40
2016,04,17,13,26,17.60
2016,04,17,13,27,17.70
2016,04,17,13,28,17.90
2016,04,17,13,29,18.00
2016,04,17,13,30,18.20
2016,04,17,13,31,18.20
2016,04,17,13,32,18.30
2016,04,17,13,33,18.40
2016,04,17,13,34,18.50
2016,04,17,13,35,18.50
2016,04,17,13,36,18.50
2016,04,17,13,37,18.60
2016,04,17,13,38,18.70
2016,04,17,13,39,18.70
2016,04,17,13,40,18.80
2016,04,17,13,41,18.90
2016,04,17,13,42,18.90
2016,04,17,13,43,18.90
2016,04,17,13,44,18.90
2016,04,17,13,45,18.90
2016,04,17,13,46,18.80
2016,04,17,13,47,18.80
2016,04,17,13,48,18.80
2016,04,17,13,49,18.70
2016,04,17,13,50,18.70
2016,04,17,13,51,18.70
2016,04,17,13,52,18.70
2016,04,17,13,53,18.70
2016,04,17,13,54,18.70
2016,04,17,13,55,18.60
2016,04,17,13,56,18.60
2016,04,17,13,57,18.60
2016,04,17,13,58,18.60
2016,04,17,13,59,18.60
2016,04,17,14,00,18.70
2016,04,17,14,01,18.70
2016,04,17,14,02,18.60
2016,04,17,14,03,18.50
2016,04,17,14,04,18.50
2016,04,17,14,05,18.50
2016,04,17,14,06,18.50
2016,04,17,14,07,18.50
2016,04,17,14,08,18.40
2016,04,17,14,09,18.40
2016,04,17,14,10,18.50
2016,04,17,14,11,18.50
2016,04,17,14,12,18.70
2016,04,17,14,13,18.70
2016,04,17,14,14,18.80
2016,04,17,14,15,18.90
2016,04,17,14,16,18.90
2016,04,17,14,17,18.90
2016,04,17,14,18,18.90
2016,04,17,14,19,18.90
2016,04,17,14,20,19.00
2016,04,17,14,21,19.10
2016,04,17,14,22,19.10
2016,04,17,14,23,19.10
2016,04,17,14,24,19.20
2016,04,17,14,25,19.20
2016,04,17,14,26,19.20
2016,04,17,14,27,19.30
2016,04,17,14,28,19.30
2016,04,17,14,29,19.30
2016,04,17,14,30,19.40
2016,04,17,14,31,19.40
2016,04,17,14,32,19.40
2016,04,17,14,33,19.50
2016,04,17,14,34,19.50
2016,04,17,14,35,19.60
2016,04,17,14,36,19.60
2016,04,17,14,37,19.60
2016,04,17,14,38,19.60
2016,04,17,14,39,19.60
2016,04,17,14,40,19.70
2016,04,17,14,41,19.70
2016,04,17,14,42,19.70
2016,04,17,14,43,19.80
2016,04,17,14,44,19.80
2016,04,17,14,45,19.90
2016,04,17,14,46,19.90
2016,04,17,14,47,19.80
2016,04,17,14,48,19.80
2016,04,17,14,49,19.70
2016,04,17,14,50,19.60
2016,04,17,14,51,19.50
2016,04,17,14,52,19.50
2016,04,17,14,53,19.50
2016,04,17,14,54,19.50
2016,04,17,14,55,19.60
2016,04,17,14,56,19.60
2016,04,17,14,57,19.60
2016,04,17,14,58,19.70
2016,04,17,14,59,19.60
2016,04,17,15,00,19.60
2016,04,17,15,01,19.50
2016,04,17,15,02,19.40
2016,04,17,15,03,19.30
2016,04,17,15,04,19.30
2016,04,17,15,05,19.30
2016,04,17,15,06,19.40
2016,04,17,15,07,19.60
2016,04,17,15,08,19.60
2016,04,17,15,09,19.70
2016,04,17,15,10,19.80
2016,04,17,15,11,19.90
2016,04,17,15,12,20.00
2016,04,17,15,13,20.10
2016,04,17,15,14,20.20
2016,04,17,15,15,20.20
2016,04,17,15,16,20.20
2016,04,17,15,17,20.30
2016,04,17,15,18,20.40
2016,04,17,15,19,20.50
2016,04,17,15,20,20.60
2016,04,17,15,21,20.70
2016,04,17,15,22,20.80
2016,04,17,15,23,21.00
2016,04,17,15,24,21.10
2016,04,17,15,25,21.10
2016,04,17,15,26,21.10
2016,04,17,15,27,21.10
2016,04,17,15,28,21.20
2016,04,17,15,29,21.20
2016,04,17,15,30,21.20
2016,04,17,15,31,21.30
2016,04,17,15,32,21.40
2016,04,17,15,33,21.40
2016,04,17,15,34,21.30
2016,04,17,15,35,21.30
2016,04,17,15,36,21.30
2016,04,17,15,37,21.30
2016,04,17,15,38,21.30
2016,04,17,15,39,21.30
2016,04,17,15,40,21.30
2016,04,17,15,41,21.20
2016,04,17,15,42,21.20
2016,04,17,15,43,21.00
2016,04,17,15,44,20.90
2016,04,17,15,45,20.80
2016,04,17,15,46,20.90
2016,04,17,15,47,20.90
2016,04,17,15,48,20.90
2016,04,17,15,49,20.90
2016,04,17,15,50,20.80
2016,04,17,15,51,20.80
2016,04,17,15,52,20.80
2016,04,17,15,53,20.80
2016,04,17,15,54,20.90
2016,04,17,15,55,20.90
2016,04,17,15,56,20.90
2016,04,17,15,57,20.90
2016,04,17,15,58,21.00
2016,04,17,15,59,21.10
2016,04,17,16,00,21.10
2016,04,17,16,01,21.20
2016,04,17,16,02,21.20
2016,04,17,16,03,21.30
2016,04,17,16,04,21.30
2016,04,17,16,05,21.40
2016,04,17,16,06,21.40
2016,04,17,16,07,21.40
2016,04,17,16,08,21.50
2016,04,17,16,09,21.50
2016,04,17,16,10,21.50
2016,04,17,16,11,21.40
2016,04,17,16,12,21.30
2016,04,17,16,13,21.30
2016,04,17,16,14,21.30
2016,04,17,16,15,21.30
2016,04,17,16,16,21.30
2016,04,17,16,17,21.40
2016,04,17,16,18,21.40
2016,04,17,16,19,21.40
2016,04,17,16,20,21.40
2016,04,17,16,21,21.40
2016,04,17,16,22,21.40
2016,04,17,16,23,21.50
2016,04,17,16,24,21.50
2016,04,17,16,25,21.50
2016,04,17,16,26,21.40
2016,04,17,16,27,21.30
2016,04,17,16,28,21.20
2016,04,17,16,29,21.10
2016,04,17,16,30,21.00
2016,04,17,16,31,20.90
2016,04,17,16,32,20.90
2016,04,17,16,33,20.80
2016,04,17,16,34,20.80
2016,04,17,16,35,20.70
2016,04,17,16,36,20.60
2016,04,17,16,37,20.50
2016,04,17,16,38,20.30
2016,04,17,16,39,20.30
2016,04,17,16,40,20.20
2016,04,17,16,41,20.10
2016,04,17,16,42,20.00
2016,04,17,16,43,19.90
2016,04,17,16,44,19.80
2016,04,17,16,45,19.80
2016,04,17,16,46,19.70
2016,04,17,16,47,19.70
2016,04,17,16,48,19.70
2016,04,17,16,49,19.60
2016,04,17,16,50,19.60
2016,04,17,16,51,19.60
2016,04,17,16,52,19.50
2016,04,17,16,53,19.50
2016,04,17,16,54,19.50
2016,04,17,16,55,19.50
2016,04,17,16,56,19.50
2016,04,17,16,57,19.50
2016,04,17,16,58,19.50
2016,04,17,16,59,19.40
2016,04,17,17,00,19.30
2016,04,17,17,01,19.30
2016,04,17,17,02,19.20
2016,04,17,17,03,19.20
2016,04,17,17,04,19.20
2016,04,17,17,05,19.10
2016,04,17,17,06,19.10
2016,04,17,17,07,19.10
2016,04,17,17,08,19.10
2016,04,17,17,09,19.10
2016,04,17,17,10,19.10
2016,04,17,17,11,19.10
2016,04,17,17,12,19.10
2016,04,17,17,13,19.10
2016,04,17,17,14,19.20
2016,04,17,17,15,19.20
2016,04,17,17,16,19.20
2016,04,17,17,17,19.20
2016,04,17,17,18,19.30
2016,04,17,17,19,19.30
2016,04,17,17,20,19.30
2016,04,17,17,21,19.30
2016,04,17,17,22,19.40
2016,04,17,17,23,19.40
2016,04,17,17,24,19.40
2016,04,17,17,25,19.40
2016,04,17,17,26,19.40
2016,04,17,17,27,19.40
2016,04,17,17,28,19.40
2016,04,17,17,29,19.40
2016,04,17,17,30,19.30
2016,04,17,17,31,19.30
2016,04,17,17,32,19.30
2016,04,17,17,33,19.30
2016,04,17,17,34,19.30
2016,04,17,17,35,19.30
2016,04,17,17,36,19.40
2016,04,17,17,37,19.40
2016,04,17,17,38,19.40
2016,04,17,17,39,19.40
2016,04,17,17,40,19.30
2016,04,17,17,41,19.30
2016,04,17,17,42,19.30
2016,04,17,17,43,19.30
2016,04,17,17,44,19.30